DELTA 1 DEB, 7060

Orbit data source: Space-Track

DELTA 1 DEB, 7060 is space debris in SSO originally from a launch on Tue, 06 Nov 1973 UTC launched from the Air Force Western Test Range (AFWTR). Debris objects in space refer to the collection of defunct objects orbiting the Earth. Examples of debris include non-operational satellites, rocket bodies, and fragments generated from explosions, collisions, or faulty payload assembly.

Loading next visibility...
Identifier
7060, 1973-086BC
Orbit
SSO
Country
Flag of USUS
Related business
Manufacturer
Unknown
Mission
Spacecraft
Bus & Motor
Unknown
Mass
Unknown
Launch date (UTC)
1973-11-06 (52 years ago)
Launch vehicle
Unknown
Launch site
Air Force Western Test Range (AFWTR)
Object type
Payload
Rocket body
Debris
Shape & HBR
Unknown shape, 0.2 m
Radar Cross Section
Medium (>0.1 m² and <1 m²)

Expand to show TLE details & history
Last TLE update: 16 hours ago

TLE from 16 hours ago
0 DELTA 1 DEB
1 07060U 73086BC  25300.02687304  .00000009  00000-0  38608-3 0  9994
2 07060 102.1626 317.0014 0023451 180.7187 237.8843 12.44914396360283
Epoch: 2025-10-27T00:38Z
TLE epoch observation values (Epoch: 2025-10-27T00:38:41.830Z)
Latitude
56.43909°
Longitude
-107.16911°
Altitude
1,504.884 km
Speed
7.113 km/s
True Right ascension
19h 52m 33s
True Declination
56° 17' 44"
Sunlit
Object was in daylight at epoch
Visualization orbit readout
Latitude
Unknown
Longitude
Unknown
Altitude
Unknown
Speed
Unknown
Apparent Right ascension
Unknown
Apparent Declination
Unknown
Sunlit
N/A
Visualization observer readout
Local Sidereal Time
11:50:45
Azimuth
Unknown
Elevation
Unknown
Doppler factor
Unknown
Orbital elements
Apogee altitude
1,501.853 km
Perigee altitude
1,464.981 km
Semi-major axis
7,861.554 km
Eccentricity
0.00235
Inclination
102.1626°
RAAN
317.0014°
Arg. of periapsis
180.7187°
True anomaly
237.65705°
Mean anomaly
237.8843°
Eccentric anomaly
237.77064°
Mean motion
3.11373 °/min
Orbital period
115.62 mins
BSTAR
0.00038608
Loading maneuver chart data...
Computing Atmospheric mass density...
Loading historical data...
Loading historical data...
Loading historical data...
Loading historical data...
Loading historical data...
Loading historical data...
Loading historical data...

Documentation

Showing up to 5 results
|